Wind_Speed
53 57 61 64 67 72 75 78 79 84 85 81 85 86 90 93 96 98 98 98 97 96 97 98 99 102 104 101 95 93 91 85 84 80 69 67 63 63 63 68 68 65 66 65
56 62 65 69 73 79 84 86 86 83 84 80 84 84 88 93 96 98 101 101 100 100 99 97 98 99 104 107 104 99 96 94 88 86 79 71 68 67 67 71 71 68 70 72
56 59 61 63 67 71 80 84 82 80 80 83 83 86 87 95 101 101 102 102 104 104 103 101 97 96 98 105 109 106 103 97 96 91 86 79 73 70 66 68 74 75 71 78
49 53 59 66 71 72 74 77 79 79 75 75 70 69 75 83 93 101 104 106 109 109 109 106 104 97 93 98 107 112 109 104 101 99 93 89 79 74 72 68 75 77 74 79
57 59 62 69 68 66 63 64 64 63 63 64 62 62 60 65 76 92 101 106 111 115 114 113 111 106 96 91 101 109 114 110 107 104 101 97 87 81 78 74 72 77 79 79
63 65 68 73 71 65 60 59 55 50 49 52 54 52 54 52 62 75 87 101 106 115 119 118 110 108 103 95 85 102 112 115 112 111 107 102 96 90 84 80 75 77 83 80
67 71 74 75 69 62 55 54 52 48 44 43 44 45 42 46 49 59 73 86 97 104 110 115 116 109 103 98 96 89 109 117 116 115 113 108 102 96 93 87 84 78 83 86
73 77 79 79 72 61 49 42 38 36 41 39 38 37 37 40 42 48 59 74 87 96 100 103 106 102 100 98 91 86 97 116 121 118 117 113 108 102 100 95 88 85 83 89
80 84 87 86 76 65 56 48 43 38 35 36 33 33 29 33 35 40 48 59 73 84 93 95 95 92 91 87 82 84 88 108 122 122 120 117 114 109 107 102 97 93 86 87
85 89 89 88 83 75 69 56 51 43 36 33 30 25 29 29 29 33 40 48 58 70 81 86 88 91 90 83 78 78 84 95 118 126 123 120 117 114 113 108 102 97 94 91
89 92 95 94 85 72 70 63 54 44 38 33 30 25 21 25 26 28 34 42 51 62 72 78 81 81 85 82 79 79 84 88 108 125 127 124 119 117 117 114 107 104 97 91
97 96 98 100 97 86 77 65 56 51 44 36 29 27 23 22 23 25 30 36 45 55 64 68 73 77 80 81 81 81 87 92 97 119 129 127 125 119 116 117 113 107 104 98
100 103 102 100 100 98 91 75 65 55 47 41 33 25 22 22 21 22 25 30 38 46 56 64 72 75 77 79 81 83 92 97 100 111 125 131 129 125 118 115 118 114 109 104
100 105 112 108 104 102 97 83 73 63 50 43 37 29 21 22 21 20 23 25 30 37 46 57 67 74 75 76 79 85 90 99 106 108 120 130 133 130 125 118 119 119 112 104
99 104 108 113 111 104 104 91 84 72 62 48 39 36 30 25 21 20 20 21 24 29 36 45 55 65 70 72 76 84 88 98 108 110 120 125 133 134 129 124 120 121 118 110
97 102 107 110 113 113 106 99 89 82 73 62 49 39 33 28 23 20 19 19 19 23 28 33 42 51 60 64 71 81 91 102 108 113 120 122 132 135 131 129 123 123 122 117
97 101 105 110 114 114 113 107 99 89 81 71 62 50 41 31 26 21 19 17 17 17 24 26 32 39 48 55 63 73 87 102 107 114 119 122 127 134 134 132 127 125 124 121
99 101 104 109 112 116 116 115 106 101 90 80 69 58 48 41 33 26 21 18 15 15 18 23 25 33 42 51 59 68 82 97 102 113 118 122 123 133 136 135 133 128 127 126
97 101 104 108 111 113 116 116 114 107 101 88 78 65 54 45 35 30 23 18 15 13 13 21 22 28 37 48 56 65 77 91 103 111 117 123 124 132 137 137 138 135 131 127
95 99 104 108 111 112 114 116 114 112 104 97 89 76 64 55 46 35 28 20 16 13 11 15 21 23 30 43 53 60 71 84 97 109 117 123 125 133 139 139 139 139 135 132
91 98 102 105 109 112 111 115 118 115 110 101 93 87 74 61 53 43 33 26 19 15 11 12 18 22 26 32 47 58 66 77 89 104 114 120 126 131 139 143 141 142 141 136
89 93 99 104 105 109 111 112 115 117 113 109 103 93 86 73 59 50 40 31 22 16 14 12 15 20 25 29 36 51 62 71 81 95 109 119 124 130 139 146 145 144 143 140
86 91 96 102 106 108 110 112 112 114 115 115 109 101 89 80 70 57 48 39 30 21 14 12 13 17 22 27 31 40 53 66 75 87 96 111 120 126 136 146 147 146 146 145
82 87 91 97 101 105 108 111 111 113 114 115 114 106 96 84 77 69 55 45 37 27 18 14 12 13 19 23 28 35 45 56 67 81 86 93 109 119 129 141 147 148 146 146
82 84 87 93 98 103 105 108 112 114 114 113 114 111 101 92 83 76 68 55 43 35 25 16 13 12 14 20 25 30 38 48 55 69 80 86 95 106 119 134 146 149 147 147
81 84 87 89 93 98 103 107 110 111 114 114 114 114 109 100 91 81 73 65 54 41 32 24 17 11 11 16 23 28 32 39 49 57 66 77 87 92 103 122 138 149 149 148
Wind_Direction
298 298 297 295 292 288 284 281 277 276 273 267 264 260 256 254 251 248 247 247 247 245 244 241 235 230 228 225 223 222 220 220 217 216 214 213 210 207 207 205 203 199 200 190
299 297 298 296 295 291 288 284 281 279 275 271 266 260 257 254 249 246 245 243 243 244 244 242 238 232 227 225 223 222 220 220 219 218 215 212 210 208 207 206 204 202 199 188
301 301 300 298 296 294 291 289 288 284 279 273 263 259 255 254 252 249 243 240 240 240 241 241 239 235 229 225 222 221 220 219 219 217 214 209 211 207 207 207 206 203 201 196
321 321 319 318 312 307 302 297 292 289 287 281 278 268 259 252 248 248 246 242 240 240 238 237 239 237 232 225 222 218 218 218 218 217 214 212 212 209 208 207 207 205 204 203
335 334 332 330 323 317 309 297 293 289 286 280 277 271 262 252 245 243 244 242 239 237 238 237 236 237 233 228 222 219 216 216 216 216 215 214 213 212 209 209 207 208 207 206
342 342 344 341 334 328 320 310 306 300 291 285 279 274 268 257 245 241 238 242 242 239 238 239 242 239 239 233 226 219 216 214 214 215 214 216 215 212 209 209 206 209 207 207
350 351 351 348 344 337 329 322 315 309 301 292 283 277 270 260 247 238 238 237 241 243 240 241 241 242 242 240 234 224 216 214 212 213 213 214 215 210 210 210 208 207 210 208
357 358 357 352 349 342 337 332 323 312 303 294 287 281 271 261 255 241 233 233 236 240 242 241 241 241 241 242 237 228 219 213 211 211 212 212 213 211 210 210 210 209 209 210
4 3 2 358 356 353 350 345 339 327 315 307 302 294 279 266 257 247 237 231 232 235 240 242 242 242 241 239 235 229 221 213 211 209 210 211 212 211 209 211 212 211 210 211
10 7 6 4 2 360 0 356 349 340 332 325 315 302 289 276 264 254 242 235 231 231 234 237 239 239 238 236 232 225 216 213 211 209 208 209 209 209 208 210 210 210 210 212
15 12 9 8 6 7 8 360 358 351 342 337 327 315 298 287 275 259 247 239 232 228 228 230 232 232 232 229 224 218 214 209 210 209 207 208 208 208 208 208 209 209 210 211
18 16 13 11 10 8 11 8 3 0 353 347 339 325 314 296 281 271 257 243 238 233 228 226 228 226 226 223 219 211 207 205 207 209 208 206 208 207 207 207 209 209 208 210
19 19 18 15 14 13 9 12 11 7 359 353 350 337 320 305 290 275 263 255 243 238 234 230 225 224 223 220 216 210 205 202 203 206 208 206 207 207 206 207 208 209 209 210
20 20 21 18 16 18 14 10 14 13 9 1 356 347 329 313 304 287 273 261 249 245 239 235 231 227 223 221 215 208 205 203 201 204 205 207 206 207 206 206 207 209 210 210
21 21 21 21 20 19 18 13 13 14 14 11 6 356 344 332 317 304 288 273 256 245 244 239 236 232 229 222 217 207 205 203 202 201 203 206 205 207 206 205 207 208 209 209
21 21 22 21 21 21 20 19 15 16 13 13 13 9 357 341 332 319 304 291 266 250 241 242 239 235 230 226 220 211 204 202 202 201 203 204 205 206 207 205 206 207 209 210
21 21 22 21 22 21 20 21 19 16 16 15 12 10 7 358 341 334 318 302 285 260 242 236 239 236 229 226 219 214 207 204 203 202 202 203 205 204 206 205 205 207 208 210
22 22 20 21 21 22 22 22 20 19 16 18 15 11 10 4 356 347 338 317 298 281 253 235 235 233 229 224 217 212 208 205 204 204 202 203 204 203 205 205 204 206 208 210
20 21 20 21 21 21 22 23 23 21 19 16 18 15 11 12 6 352 349 331 313 296 267 239 228 233 232 227 220 212 210 207 206 204 203 203 202 203 205 206 205 207 208 210
18 20 20 19 20 20 21 22 24 22 20 20 16 17 14 11 11 6 356 351 327 306 283 248 230 227 237 232 225 217 212 211 208 206 205 204 202 203 203 207 207 207 208 210
16 18 18 19 19 19 18 20 22 23 21 21 20 15 16 14 11 11 5 360 348 325 297 260 236 226 230 239 231 224 217 212 210 209 209 206 205 204 203 206 208 209 209 210
14 15 16 17 18 17 17 18 21 21 22 21 21 19 15 15 14 11 10 6 2 345 320 292 249 233 225 232 237 230 223 217 214 212 213 211 209 206 205 205 208 210 210 210
11 13 14 14 16 16 16 16 18 20 21 22 21 19 19 15 14 16 11 10 6 360 336 313 287 247 229 225 232 236 231 222 220 217 216 215 214 212 209 207 208 210 211 210
10 11 11 13 14 14 15 16 16 18 19 19 20 19 19 18 17 13 16 11 9 6 354 327 309 277 246 229 224 228 231 230 223 220 221 219 218 216 215 212 209 211 212 212
7 9 9 10 11 13 13 14 14 16 17 17 18 18 18 19 19 16 13 14 12 9 6 350 325 292 256 240 231 227 226 230 232 225 223 225 222 219 218 216 213 212 213 213
4 5 8 9 9 10 11 12 12 13 15 16 15 17 17 17 18 19 16 12 10 11 9 4 346 317 271 242 236 233 229 227 229 232 229 226 226 224 221 219 216 216 216 216
Height
10515 10506 10496 10489 10479 10467 10456 10446 10439 10424 10416 10417 10410 10410 10410 10414 10421 10427 10434 10441 10452 10460 10470 10483 10503 10522 10540 10555 10571 10588 10602 10616 10630 10643 10655 10666 10676 10684 10695 10705 10716 10722 10731 10745
10502 10491 10481 10470 10459 10443 10426 10413 10402 10396 10381 10380 10372 10372 10374 10378 10383 10393 10402 10410 10419 10430 10441 10454 10469 10490 10509 10528 10546 10563 10580 10595 10610 10624 10639 10652 10662 10670 10679 10691 10702 10711 10718 10728
10492 10479 10466 10452 10437 10419 10393 10377 10367 10357 10349 10339 10342 10338 10345 10346 10351 10359 10369 10376 10386 10397 10410 10422 10438 10457 10478 10497 10516 10537 10555 10573 10590 10605 10619 10634 10643 10657 10671 10679 10688 10699 10707 10714
10478 10463 10444 10426 10405 10388 10367 10345 10330 10319 10316 10308 10306 10305 10304 10313 10319 10323 10333 10346 10355 10364 10376 10391 10407 10425 10446 10465 10486 10507 10527 10549 10566 10584 10601 10615 10629 10644 10654 10664 10676 10687 10699 10707
10459 10443 10427 10403 10380 10362 10340 10317 10304 10293 10286 10278 10275 10272 10275 10280 10285 10291 10297 10308 10321 10332 10343 10355 10373 10392 10414 10434 10455 10477 10499 10521 10541 10561 10579 10595 10612 10628 10639 10649 10659 10672 10684 10697
10446 10427 10408 10383 10355 10333 10313 10290 10280 10271 10262 10251 10247 10249 10248 10252 10254 10260 10268 10275 10285 10297 10310 10324 10341 10359 10378 10405 10427 10447 10469 10492 10513 10534 10556 10574 10592 10608 10621 10631 10643 10657 10670 10681
10433 10411 10388 10367 10345 10318 10294 10274 10259 10249 10242 10234 10229 10228 10228 10228 10232 10237 10244 10252 10258 10267 10281 10293 10311 10330 10349 10371 10395 10419 10440 10462 10485 10507 10530 10550 10569 10587 10600 10614 10628 10638 10652 10666
10419 10396 10373 10346 10321 10299 10283 10267 10254 10240 10226 10219 10215 10214 10211 10212 10212 10217 10221 10228 10235 10242 10254 10266 10282 10303 10324 10343 10365 10387 10413 10434 10457 10481 10503 10525 10544 10565 10580 10594 10608 10621 10633 10649
10405 10382 10355 10329 10309 10288 10268 10250 10239 10227 10216 10206 10201 10198 10198 10196 10198 10200 10205 10211 10218 10226 10234 10246 10262 10283 10302 10318 10338 10359 10382 10408 10429 10454 10477 10498 10519 10539 10558 10574 10590 10603 10617 10628
10398 10374 10353 10327 10297 10272 10257 10245 10225 10215 10206 10197 10191 10188 10184 10185 10186 10187 10190 10194 10201 10209 10215 10226 10242 10260 10278 10296 10314 10334 10355 10378 10403 10426 10449 10471 10494 10516 10536 10553 10570 10584 10598 10612
10396 10373 10347 10323 10303 10284 10262 10237 10223 10212 10200 10192 10184 10179 10176 10174 10175 10175 10178 10181 10184 10188 10195 10204 10216 10234 10251 10269 10290 10310 10329 10349 10375 10399 10424 10446 10469 10490 10511 10532 10551 10565 10581 10597
10394 10373 10345 10319 10292 10269 10256 10238 10221 10205 10193 10186 10178 10171 10167 10165 10164 10166 10167 10170 10173 10178 10182 10190 10200 10212 10226 10245 10266 10287 10305 10325 10347 10373 10398 10421 10444 10466 10489 10512 10528 10546 10560 10573
10392 10371 10351 10324 10296 10267 10249 10236 10220 10206 10193 10182 10174 10167 10161 10157 10156 10157 10158 10161 10164 10168 10174 10180 10186 10197 10210 10226 10245 10264 10283 10302 10321 10346 10373 10396 10418 10442 10467 10487 10506 10522 10538 10554
10390 10368 10344 10322 10301 10277 10256 10237 10221 10208 10194 10182 10172 10165 10159 10153 10151 10151 10151 10153 10155 10159 10163 10169 10177 10186 10197 10212 10228 10245 10263 10281 10300 10321 10346 10371 10394 10419 10444 10465 10484 10501 10519 10535
10394 10373 10351 10331 10308 10285 10264 10239 10223 10207 10195 10183 10173 10162 10155 10150 10147 10144 10144 10145 10146 10149 10153 10159 10166 10176 10187 10199 10215 10230 10246 10263 10282 10299 10321 10346 10372 10395 10421 10443 10462 10481 10499 10515
10400 10379 10357 10337 10315 10291 10272 10250 10227 10208 10194 10183 10172 10163 10155 10148 10144 10140 10138 10139 10140 10142 10144 10149 10157 10165 10176 10189 10202 10216 10229 10244 10262 10280 10301 10322 10346 10373 10399 10422 10440 10461 10479 10494
10401 10383 10364 10344 10321 10297 10276 10251 10231 10213 10198 10184 10171 10162 10154 10148 10142 10139 10135 10133 10134 10136 10138 10142 10148 10156 10165 10176 10188 10202 10216 10231 10247 10264 10284 10304 10326 10351 10374 10399 10421 10440 10457 10473
10403 10385 10367 10346 10326 10303 10280 10258 10236 10218 10202 10187 10175 10165 10157 10148 10140 10136 10134 10131 10130 10132 10135 10137 10142 10149 10158 10168 10179 10190 10203 10219 10233 10249 10267 10285 10309 10331 10352 10376 10398 10418 10435 10451
10405 10389 10371 10351 10330 10314 10296 10270 10250 10229 10210 10193 10182 10171 10160 10151 10144 10136 10133 10129 10127 10128 10130 10133 10137 10144 10153 10161 10171 10182 10194 10207 10219 10235 10251 10268 10287 10309 10330 10353 10374 10394 10412 10431
10408 10390 10373 10354 10336 10320 10305 10285 10263 10244 10227 10206 10190 10178 10165 10154 10145 10139 10132 10129 10126 10125 10127 10129 10133 10139 10148 10155 10164 10175 10184 10197 10210 10224 10236 10252 10267 10283 10307 10330 10350 10370 10389 10408
10410 10393 10376 10361 10343 10326 10311 10292 10270 10253 10234 10219 10200 10182 10170 10159 10150 10142 10135 10130 10127 10125 10125 10126 10130 10135 10140 10149 10158 10168 10177 10188 10201 10215 10227 10240 10251 10266 10284 10304 10326 10346 10363 10382
10410 10396 10382 10367 10352 10332 10316 10298 10276 10259 10244 10226 10208 10193 10177 10165 10156 10147 10139 10133 10128 10125 10123 10124 10126 10130 10135 10141 10151 10161 10170 10180 10191 10203 10216 10230 10241 10252 10263 10280 10300 10321 10341 10361
10412 10397 10381 10366 10352 10336 10321 10304 10288 10271 10253 10236 10220 10207 10193 10178 10162 10153 10143 10136 10131 10127 10124 10122 10124 10127 10131 10136 10144 10154 10164 10173 10182 10193 10203 10217 10230 10242 10252 10264 10280 10297 10315 10335
10417 10402 10388 10374 10359 10343 10327 10313 10297 10278 10262 10246 10232 10218 10204 10188 10172 10158 10149 10141 10134 10130 10126 10123 10122 10124 10127 10132 10137 10144 10154 10165 10174 10184 10192 10204 10217 10230 10240 10252 10265 10278 10295 10313
10418 10405 10391 10376 10362 10349 10334 10320 10304 10286 10269 10254 10243 10228 10211 10195 10180 10165 10154 10146 10139 10132 10128 10125 10122 10120 10123 10127 10132 10138 10145 10155 10164 10174 10181 10189 10201 10213 10225 10237 10250 10261 10275 10289
10417 10405 10393 10379 10366 10352 10338 10324 10309 10295 10277 10263 10250 10234 10218 10201 10189 10177 10164 10151 10142 10136 10130 10126 10124 10121 10120 10122 10126 10131 10138 10145 10154 10162 10171 10179 10189 10199 10208 10219 10231 10243 10255 10268